| time (UTC) | temp F | wind direction | speed knots | gust knots | rain 1hr in | rain 24hr in | rain mn in | humidity % | barometer mb |
| 20260903023505 | 57 | 120 | 0.0 | 0.0 | 0.00 | 0.00 | 0.00 | 90 | 1027.1 |
| 20260903023005 | 57 | 120 | 0.0 | 0.0 | 0.00 | 0.00 | 0.00 | 90 | 1027.1 |
| 20260903022005 | 57 | 123 | 0.0 | 0.0 | 0.00 | 0.00 | 0.00 | 89 | 1027.1 |
| 20260903021505 | 57 | 108 | 0.0 | 0.0 | 0.00 | 0.00 | 0.00 | 89 | 1027.1 |
| 20260903021005 | 57 | 108 | 0.0 | 0.0 | 0.00 | 0.00 | 0.00 | 89 | 1027.4 |
| 20260903020505 | 57 | 108 | 0.0 | 0.0 | 0.00 | 0.00 | 0.00 | 89 | 1027.1 |
| 20260903020005 | 57 | 115 | 0.9 | 1.7 | 0.00 | 0.00 | 0.00 | 89 | 1027.1 |
| 20260903015005 | 58 | 123 | 0.0 | 0.0 | 0.00 | 0.00 | 0.00 | 88 | 1027.4 |
| 20260903014505 | 58 | 120 | 0.0 | 0.9 | 0.00 | 0.00 | 0.00 | 88 | 1027.4 |
| 20260903014005 | 58 | 123 | 0.0 | 0.9 | 0.00 | 0.00 | 0.00 | 87 | 1027.4 |
| 20260903013505 | 58 | 132 | 0.0 | 0.0 | 0.00 | 0.00 | 0.00 | 86 | 1027.1 |
| 20260903013005 | 59 | 128 | 0.0 | 0.0 | 0.00 | 0.00 | 0.00 | 86 | 1027.1 |
| 20260903012005 | 59 | 301 | 0.0 | 0.9 | 0.00 | 0.00 | 0.00 | 83 | 1027.1 |
| 20260903011505 | 59 | 110 | 0.0 | 0.9 | 0.00 | 0.00 | 0.00 | 83 | 1027.1 |
| 20260903011005 | 60 | 115 | 0.0 | 0.0 | 0.00 | 0.00 | 0.00 | 83 | 1027.1 |
| 20260903010004 | 59 | 113 | 0.0 | 0.0 | 0.00 | 0.00 | 0.00 | 83 | 1027.1 |
| 20260903005504 | 59 | 134 | 0.0 | 0.0 | 0.00 | 0.00 | 0.00 | 84 | 1027.1 |
| 20260903005005 | 59 | 142 | 0.0 | 0.0 | 0.00 | 0.00 | 0.00 | 84 | 1027.1 |
| 20260903004505 | 59 | 172 | 0.0 | 0.0 | 0.00 | 0.00 | 0.00 | 83 | 1027.4 |
| 20260903004005 | 59 | 282 | 0.0 | 0.0 | 0.00 | 0.00 | 0.00 | 84 | 1027.1 |
| 20260903003505 | 60 | 282 | 0.0 | 0.0 | 0.00 | 0.00 | 0.00 | 83 | 1027.1 |
| 20260903002505 | 60 | 282 | 0.0 | 0.0 | 0.00 | 0.00 | 0.00 | 83 | 1027.1 |
| 20260903002005 | 60 | 282 | 0.0 | 0.0 | 0.00 | 0.00 | 0.00 | 82 | 1026.8 |
| 20260903001505 | 60 | 282 | 0.0 | 0.0 | 0.00 | 0.00 | 0.00 | 81 | 1027.1 |
| 20260903001005 | 60 | 282 | 0.0 | 0.0 | 0.00 | 0.00 | 0.00 | 80 | 1026.8 |
| 20260903000505 | 61 | 282 | 0.0 | 0.0 | 0.00 | 0.00 | 0.00 | 80 | 1027.1 |
| 20260903000005 | 61 | 282 | 0.0 | 0.0 | 0.00 | 0.00 | 0.00 | 80 | 1027.0 |
| 20260902235504 | 61 | 282 | 0.0 | 0.0 | 0.00 | 0.00 | 0.00 | 79 | 1026.8 |
| 20260902235005 | 61 | 282 | 0.0 | 0.0 | 0.00 | 0.00 | 0.00 | 78 | 1026.8 |
| 20260902234505 | 61 | 282 | 0.0 | 0.0 | 0.00 | 0.00 | 0.00 | 77 | 1027.1 |
| 20260902234005 | 62 | 282 | 0.0 | 0.0 | 0.00 | 0.00 | 0.00 | 76 | 1027.1 |
| 20260902233504 | 62 | 282 | 0.0 | 0.0 | 0.00 | 0.00 | 0.00 | 75 | 1027.1 |
| 20260902233005 | 62 | 282 | 0.0 | 0.0 | 0.00 | 0.00 | 0.00 | 75 | 1027.1 |
| 20260902232505 | 63 | 282 | 0.0 | 0.0 | 0.00 | 0.00 | 0.00 | 74 | 1027.1 |
| 20260902232005 | 63 | 282 | 0.0 | 0.0 | 0.00 | 0.00 | 0.00 | 74 | 1027.1 |
| 20260902231505 | 63 | 282 | 0.0 | 0.0 | 0.00 | 0.00 | 0.00 | 74 | 1027.1 |
| 20260902231006 | 63 | 282 | 0.0 | 0.0 | 0.00 | 0.00 | 0.00 | 73 | 1027.1 |
| 20260902230505 | 63 | 291 | 0.0 | 0.0 | 0.00 | 0.00 | 0.00 | 73 | 1027.1 |
| 20260902230005 | 63 | 287 | 0.9 | 1.7 | 0.00 | 0.00 | 0.00 | 73 | 1027.1 |
| 20260902225005 | 63 | 290 | 0.9 | 0.9 | 0.00 | 0.00 | 0.00 | 72 | 1027.1 |
| 20260902224505 | 64 | 289 | 0.0 | 1.7 | 0.00 | 0.00 | 0.00 | 72 | 1027.4 |
| 20260902224005 | 64 | 288 | 0.9 | 1.7 | 0.00 | 0.00 | 0.00 | 72 | 1027.1 |
| 20260902223505 | 64 | 295 | 0.9 | 1.7 | 0.00 | 0.00 | 0.00 | 71 | 1027.1 |
| 20260902223005 | 64 | 296 | 0.9 | 1.7 | 0.00 | 0.00 | 0.00 | 71 | 1027.1 |
| 20260902222505 | 64 | 287 | 0.9 | 1.7 | 0.00 | 0.00 | 0.00 | 71 | 1027.1 |
| 20260902222005 | 64 | 284 | 0.9 | 1.7 | 0.00 | 0.00 | 0.00 | 71 | 1027.1 |
| 20260902221505 | 64 | 287 | 0.9 | 2.6 | 0.00 | 0.00 | 0.00 | 70 | 1027.1 |
| 20260902220504 | 65 | 286 | 1.7 | 2.6 | 0.00 | 0.00 | 0.00 | 69 | 1026.8 |
| 20260902220005 | 65 | 288 | 2.6 | 2.6 | 0.00 | 0.00 | 0.00 | 69 | 1026.8 |
| 20260902215504 | 65 | 307 | 2.6 | 2.6 | 0.00 | 0.00 | 0.00 | 69 | 1026.8 |
| 20260902214005 | 65 | 288 | 0.9 | 0.9 | 0.00 | 0.00 | 0.00 | 67 | 1026.8 |
| 20260902213505 | 65 | 273 | 0.0 | 0.9 | 0.00 | 0.00 | 0.00 | 67 | 1026.5 |
| 20260902213005 | 65 | 266 | 0.9 | 1.7 | 0.00 | 0.00 | 0.00 | 67 | 1026.4 |
| 20260902212505 | 66 | 291 | 0.9 | 2.6 | 0.00 | 0.00 | 0.00 | 66 | 1026.4 |
| 20260902212004 | 66 | 261 | 1.7 | 2.6 | 0.00 | 0.00 | 0.00 | 65 | 1026.8 |
| 20260902211504 | 66 | 305 | 1.7 | 2.6 | 0.00 | 0.00 | 0.00 | 65 | 1026.8 |
| 20260902211005 | 66 | 240 | 1.7 | 2.6 | 0.00 | 0.00 | 0.00 | 65 | 1026.4 |
| 20260902210005 | 66 | 295 | 0.0 | 0.9 | 0.00 | 0.00 | 0.00 | 64 | 1026.4 |
| 20260902205004 | 67 | 252 | 0.0 | 2.6 | 0.00 | 0.00 | 0.00 | 63 | 1026.4 |
| 20260902204505 | 67 | 263 | 1.7 | 2.6 | 0.00 | 0.00 | 0.00 | 62 | 1026.1 |
| 20260902204005 | 67 | 300 | 0.9 | 1.7 | 0.00 | 0.00 | 0.00 | 61 | 1026.1 |
| 20260902203504 | 67 | 280 | 0.9 | 1.7 | 0.00 | 0.00 | 0.00 | 61 | 1026.1 |
| 20260902203005 | 67 | 273 | 0.9 | 1.7 | 0.00 | 0.00 | 0.00 | 61 | 1026.1 |
| 20260902202505 | 68 | 251 | 1.7 | 1.7 | 0.00 | 0.00 | 0.00 | 60 | 1026.1 |
| 20260902200505 | 68 | 281 | 0.9 | 2.6 | 0.00 | 0.00 | 0.00 | 59 | 1026.1 |
| 20260902200005 | 68 | 286 | 0.9 | 1.7 | 0.00 | 0.00 | 0.00 | 59 | 1026.1 |
| 20260902195505 | 68 | 284 | 0.9 | 2.6 | 0.00 | 0.00 | 0.00 | 59 | 1026.1 |
| 20260902195005 | 69 | 253 | 1.7 | 2.6 | 0.00 | 0.00 | 0.00 | 58 | 1026.1 |
| 20260902194505 | 69 | 280 | 1.7 | 2.6 | 0.00 | 0.00 | 0.00 | 58 | 1026.1 |
| 20260902193504 | 69 | 280 | 0.9 | 1.7 | 0.00 | 0.00 | 0.00 | 57 | 1026.1 |
| 20260902193005 | 69 | 279 | 0.9 | 1.7 | 0.00 | 0.00 | 0.00 | 57 | 1026.1 |
| 20260902192504 | 69 | 293 | 1.7 | 1.7 | 0.00 | 0.00 | 0.00 | 57 | 1026.1 |
| 20260902192005 | 69 | 287 | 0.9 | 1.7 | 0.00 | 0.00 | 0.00 | 57 | 1026.1 |
| 20260902191505 | 69 | 276 | 0.9 | 1.7 | 0.00 | 0.00 | 0.00 | 57 | 1025.7 |
| 20260902191005 | 69 | 292 | 0.0 | 0.0 | 0.00 | 0.00 | 0.00 | 57 | 1026.1 |
| 20260902190005 | 69 | 259 | 0.0 | 0.9 | 0.00 | 0.00 | 0.00 | 58 | 1026.1 |
| 20260902185504 | 69 | 256 | 0.0 | 0.0 | 0.00 | 0.00 | 0.00 | 57 | 1026.1 |
| 20260902185005 | 70 | 296 | 0.0 | 0.0 | 0.00 | 0.00 | 0.00 | 57 | 1025.7 |
| 20260902184505 | 70 | 299 | 0.0 | 0.0 | 0.00 | 0.00 | 0.00 | 57 | 1026.1 |
| 20260902184005 | 70 | 282 | 0.0 | 0.0 | 0.00 | 0.00 | 0.00 | 56 | 1025.7 |
| 20260902183505 | 70 | 287 | 0.0 | 0.0 | 0.00 | 0.00 | 0.00 | 56 | 1025.7 |
| 20260902183004 | 70 | 289 | 0.0 | 0.0 | 0.00 | 0.00 | 0.00 | 56 | 1025.7 |
| 20260902182505 | 71 | 286 | 0.0 | 0.9 | 0.00 | 0.00 | 0.00 | 55 | 1025.7 |
| 20260902182005 | 71 | 286 | 0.9 | 0.9 | 0.00 | 0.00 | 0.00 | 55 | 1025.7 |
| 20260902181004 | 71 | 277 | 0.0 | 0.0 | 0.00 | 0.00 | 0.00 | 54 | 1025.4 |
| 20260902180505 | 71 | 268 | 0.9 | 0.9 | 0.00 | 0.00 | 0.00 | 54 | 1025.4 |
| 20260902180007 | 72 | 251 | 0.9 | 0.9 | 0.00 | 0.00 | 0.00 | 53 | 1025.4 |
| 20260902175504 | 72 | 284 | 0.0 | 1.7 | 0.00 | 0.00 | 0.00 | 53 | 1025.4 |
| 20260902175005 | 72 | 288 | 0.9 | 1.7 | 0.00 | 0.00 | 0.00 | 52 | 1025.4 |
| 20260902174005 | 73 | 259 | 0.9 | 1.7 | 0.00 | 0.00 | 0.00 | 51 | 1025.4 |
| 20260902173005 | 73 | 284 | 0.9 | 1.7 | 0.00 | 0.00 | 0.00 | 50 | 1025.1 |
| 20260902172505 | 74 | 269 | 0.0 | 4.3 | 0.00 | 0.00 | 0.00 | 50 | 1025.4 |
| 20260902172005 | 74 | 300 | 2.6 | 4.3 | 0.00 | 0.00 | 0.00 | 49 | 1025.1 |
| 20260902171505 | 74 | 300 | 2.6 | 4.3 | 0.00 | 0.00 | 0.00 | 49 | 1025.1 |
| 20260902171005 | 75 | 271 | 1.7 | 2.6 | 0.00 | 0.00 | 0.00 | 49 | 1025.1 |
| 20260902170505 | 75 | 279 | 0.0 | 0.0 | 0.00 | 0.00 | 0.00 | 48 | 1025.1 |
| 20260902170005 | 75 | 279 | 0.0 | 0.9 | 0.00 | 0.00 | 0.00 | 48 | 1025.1 |
| 20260902165005 | 76 | 286 | 0.0 | 0.0 | 0.00 | 0.00 | 0.00 | 46 | 1025.1 |
| 20260902164006 | 76 | 279 | 0.0 | 1.7 | 0.00 | 0.00 | 0.00 | 44 | 1025.1 |
| 20260902162005 | 76 | 303 | 0.9 | 1.7 | 0.00 | 0.00 | 0.00 | 42 | 1025.1 |
| 20260902161505 | 76 | 303 | 1.7 | 4.3 | 0.00 | 0.00 | 0.00 | 42 | 1025.1 |
| 20260902161004 | 78 | 290 | 2.6 | 6.1 | 0.00 | 0.00 | 0.00 | 42 | 1024.7 |
| 20260902160505 | 77 | 301 | 4.3 | 6.1 | 0.00 | 0.00 | 0.00 | 42 | 1024.7 |
| 20260902154505 | 78 | 279 | 4.3 | 6.1 | 0.00 | 0.00 | 0.00 | 42 | 1024.7 |
| 20260902154005 | 78 | 288 | 1.7 | 2.6 | 0.00 | 0.00 | 0.00 | 43 | 1025.1 |
| 20260902153505 | 78 | 313 | 1.7 | 2.6 | 0.00 | 0.00 | 0.00 | 44 | 1025.1 |
| 20260902152504 | 77 | 296 | 2.6 | 5.2 | 0.00 | 0.00 | 0.00 | 47 | 1024.7 |
| 20260902152005 | 78 | 308 | 1.7 | 1.7 | 0.00 | 0.00 | 0.00 | 47 | 1025.1 |
| 20260902151504 | 78 | 308 | 1.7 | 5.2 | 0.00 | 0.00 | 0.00 | 47 | 1025.1 |
| 20260902151005 | 78 | 289 | 2.6 | 8.7 | 0.00 | 0.00 | 0.00 | 48 | 1024.7 |
| 20260902150505 | 76 | 293 | 7.0 | 8.7 | 0.00 | 0.00 | 0.00 | 49 | 1025.1 |
| 20260902150005 | 76 | 293 | 6.1 | 8.7 | 0.00 | 0.00 | 0.00 | 49 | 1025.1 |
| 20260902145505 | 78 | 263 | 2.6 | 7.0 | 0.00 | 0.00 | 0.00 | 48 | 1025.1 |
| 20260902145005 | 78 | 284 | 5.2 | 7.0 | 0.00 | 0.00 | 0.00 | 47 | 1025.1 |
| 20260902144005 | 79 | 298 | 0.9 | 6.1 | 0.00 | 0.00 | 0.00 | 47 | 1025.1 |
| 20260902143005 | 78 | 290 | 2.6 | 6.1 | 0.00 | 0.00 | 0.00 | 47 | 1025.4 |
| 20260902142505 | 79 | 251 | 4.3 | 6.1 | 0.00 | 0.00 | 0.00 | 46 | 1025.4 |
| 20260902142005 | 78 | 266 | 1.7 | 6.1 | 0.00 | 0.00 | 0.00 | 47 | 1025.1 |
| 20260902141005 | 78 | 265 | 4.3 | 5.2 | 0.00 | 0.00 | 0.00 | 45 | 1025.4 |
| 20260902140005 | 77 | 287 | 7.0 | 11.3 | 0.00 | 0.00 | 0.00 | 47 | 1025.4 |
| 20260902135505 | 76 | 289 | 2.6 | 4.3 | 0.00 | 0.00 | 0.00 | 49 | 1025.4 |
| 20260902135005 | 77 | 285 | 4.3 | 5.2 | 0.00 | 0.00 | 0.00 | 47 | 1025.4 |
| 20260902134505 | 78 | 282 | 5.2 | 5.2 | 0.00 | 0.00 | 0.00 | 46 | 1025.4 |
| 20260902134005 | 79 | 302 | 0.9 | 2.6 | 0.00 | 0.00 | 0.00 | 47 | 1025.4 |
| 20260902133505 | 78 | 292 | 2.6 | 5.2 | 0.00 | 0.00 | 0.00 | 47 | 1025.4 |
| 20260902133005 | 77 | 286 | 2.6 | 7.8 | 0.00 | 0.00 | 0.00 | 47 | 1025.4 |
| 20260902132005 | 79 | 279 | 4.3 | 7.8 | 0.00 | 0.00 | 0.00 | 47 | 1025.4 |
| 20260902131504 | 79 | 292 | 2.6 | 4.3 | 0.00 | 0.00 | 0.00 | 46 | 1025.4 |
| 20260902131005 | 77 | 308 | 1.7 | 1.7 | 0.00 | 0.00 | 0.00 | 48 | 1025.7 |
| 20260902130004 | 77 | 300 | 2.6 | 7.8 | 0.00 | 0.00 | 0.00 | 47 | 1026.1 |
| 20260902125505 | 78 | 244 | 4.3 | 7.8 | 0.00 | 0.00 | 0.00 | 48 | 1025.7 |
| 20260902124505 | 78 | 295 | 4.3 | 5.2 | 0.00 | 0.00 | 0.00 | 48 | 1026.1 |
| 20260902123505 | 77 | 284 | 2.6 | 5.2 | 0.00 | 0.00 | 0.00 | 49 | 1026.1 |
| 20260902123005 | 76 | 282 | 4.3 | 5.2 | 0.00 | 0.00 | 0.00 | 50 | 1025.7 |
| 20260902122504 | 78 | 284 | 0.0 | 0.9 | 0.00 | 0.00 | 0.00 | 49 | 1025.7 |
| 20260902122005 | 78 | 284 | 0.9 | 1.7 | 0.00 | 0.00 | 0.00 | 49 | 1025.7 |
| 20260902121505 | 76 | 305 | 0.9 | 1.7 | 0.00 | 0.00 | 0.00 | 52 | 1026.1 |
| 20260902121005 | 77 | 274 | 0.0 | 0.9 | 0.00 | 0.00 | 0.00 | 52 | 1025.7 |
| 20260902120505 | 77 | 274 | 0.0 | 0.9 | 0.00 | 0.00 | 0.00 | 52 | 1025.7 |
| 20260902120005 | 77 | 116 | 0.0 | 1.7 | 0.00 | 0.00 | 0.00 | 52 | 1026.1 |
| 20260902115505 | 74 | 32 | 1.7 | 1.7 | 0.00 | 0.00 | 0.00 | 54 | 1026.1 |
| 20260902115005 | 74 | 32 | 1.7 | 1.7 | 0.00 | 0.00 | 0.00 | 54 | 1026.1 |
| 20260902114004 | 73 | 300 | 0.9 | 0.9 | 0.00 | 0.00 | 0.00 | 55 | 1026.1 |
| 20260902113505 | 73 | 300 | 0.9 | 1.7 | 0.00 | 0.00 | 0.00 | 55 | 1026.1 |
| 20260902113008 | 73 | 262 | 1.7 | 1.7 | 0.00 | 0.00 | 0.00 | 55 | 1026.4 |
| 20260902111504 | 76 | 354 | 1.7 | 2.6 | 0.00 | 0.00 | 0.00 | 57 | 1026.1 |
| 20260902111004 | 76 | 112 | 0.9 | 0.9 | 0.00 | 0.00 | 0.00 | 58 | 1026.1 |
| 20260902110523 | 76 | 112 | 0.9 | 0.9 | 0.00 | 0.00 | 0.00 | 58 | 1026.1 |
| 20260902110007 | 76 | 267 | 0.0 | 0.0 | 0.00 | 0.00 | 0.00 | 56 | 1026.1 |
| 20260902105505 | 75 | 114 | 0.0 | 0.0 | 0.00 | 0.00 | 0.00 | 57 | 1026.4 |
| 20260902104504 | 74 | 93 | 0.9 | 2.6 | 0.00 | 0.00 | 0.00 | 56 | 1026.4 |
| 20260902104005 | 74 | 94 | 2.6 | 2.6 | 0.00 | 0.00 | 0.00 | 56 | 1026.4 |
| 20260902103505 | 74 | 94 | 2.6 | 2.6 | 0.00 | 0.00 | 0.00 | 56 | 1026.4 |
| 20260902103005 | 73 | 122 | 0.9 | 1.7 | 0.00 | 0.00 | 0.00 | 55 | 1026.8 |
| 20260902102504 | 73 | 123 | 0.9 | 0.9 | 0.00 | 0.00 | 0.00 | 57 | 1026.8 |
| 20260902101504 | 73 | 110 | 1.7 | 2.6 | 0.00 | 0.00 | 0.00 | 60 | 1026.4 |
| 20260902101005 | 73 | 132 | 1.7 | 2.6 | 0.00 | 0.00 | 0.00 | 60 | 1026.8 |
| 20260902100505 | 73 | 132 | 1.7 | 2.6 | 0.00 | 0.00 | 0.00 | 60 | 1026.8 |
| 20260902100005 | 72 | 190 | 0.0 | 2.6 | 0.00 | 0.00 | 0.00 | 59 | 1026.8 |
| 20260902095005 | 73 | 107 | 1.7 | 2.6 | 0.00 | 0.00 | 0.00 | 59 | 1026.8 |
| 20260902094505 | 74 | 56 | 0.0 | 5.2 | 0.00 | 0.00 | 0.00 | 56 | 1026.8 |
| 20260902094005 | 72 | 113 | 4.3 | 5.2 | 0.00 | 0.00 | 0.00 | 61 | 1026.8 |
| 20260902093505 | 72 | 114 | 4.3 | 5.2 | 0.00 | 0.00 | 0.00 | 61 | 1026.8 |
| 20260902092504 | 74 | 116 | 4.3 | 5.2 | 0.00 | 0.00 | 0.00 | 59 | 1026.8 |
| 20260902092005 | 74 | 115 | 4.3 | 5.2 | 0.00 | 0.00 | 0.00 | 59 | 1026.8 |
| 20260902091505 | 74 | 72 | 0.9 | 2.6 | 0.00 | 0.00 | 0.00 | 58 | 1026.8 |
| 20260902091005 | 72 | 116 | 1.7 | 2.6 | 0.00 | 0.00 | 0.00 | 61 | 1027.0 |
| 20260902090005 | 73 | 99 | 0.9 | 1.7 | 0.00 | 0.00 | 0.00 | 62 | 1026.8 |
| 20260902085005 | 71 | 135 | 0.9 | 1.7 | 0.00 | 0.00 | 0.00 | 64 | 1026.8 |
| 20260902084505 | 71 | 146 | 1.7 | 1.7 | 0.00 | 0.00 | 0.00 | 63 | 1026.8 |
| 20260902084005 | 71 | 166 | 0.9 | 1.7 | 0.00 | 0.00 | 0.00 | 64 | 1026.8 |
| 20260902083005 | 70 | 222 | 0.0 | 0.0 | 0.00 | 0.00 | 0.00 | 65 | 1026.8 |
| 20260902082005 | 69 | 20 | 0.0 | 0.0 | 0.00 | 0.00 | 0.00 | 67 | 1026.8 |
| 20260902081504 | 69 | 110 | 0.0 | 0.0 | 0.00 | 0.00 | 0.00 | 69 | 1026.8 |
| 20260902080504 | 69 | 170 | 0.0 | 0.9 | 0.00 | 0.00 | 0.00 | 70 | 1026.8 |
| 20260902080005 | 69 | 116 | 0.0 | 0.0 | 0.00 | 0.00 | 0.00 | 68 | 1027.1 |
| 20260902075005 | 69 | 122 | 2.6 | 2.6 | 0.00 | 0.00 | 0.00 | 68 | 1026.8 |
| 20260902074505 | 68 | 118 | 0.0 | 0.0 | 0.00 | 0.00 | 0.00 | 70 | 1027.1 |
| 20260902073505 | 67 | 135 | 0.9 | 1.7 | 0.00 | 0.00 | 0.00 | 72 | 1026.8 |
| 20260902072504 | 67 | 203 | 0.9 | 1.7 | 0.00 | 0.00 | 0.00 | 70 | 1026.6 |
| 20260902071504 | 65 | 118 | 1.7 | 2.6 | 0.00 | 0.00 | 0.00 | 73 | 1026.8 |
| 20260902071004 | 65 | 131 | 0.9 | 2.6 | 0.00 | 0.00 | 0.00 | 73 | 1026.8 |
| 20260902070505 | 65 | 230 | 0.9 | 0.9 | 0.00 | 0.00 | 0.00 | 74 | 1026.8 |
| 20260902070007 | 64 | 234 | 0.0 | 0.0 | 0.00 | 0.00 | 0.00 | 77 | 1026.8 |
| 20260902065504 | 64 | 213 | 0.9 | 0.9 | 0.00 | 0.00 | 0.00 | 77 | 1026.8 |
| 20260902064504 | 63 | 167 | 0.0 | 0.0 | 0.00 | 0.00 | 0.00 | 79 | 1027.1 |
| 20260902064005 | 62 | 164 | 0.0 | 0.9 | 0.00 | 0.00 | 0.00 | 80 | 1026.9 |
| 20260902063005 | 61 | 148 | 0.0 | 0.0 | 0.00 | 0.00 | 0.00 | 83 | 1026.8 |
| 20260902062504 | 60 | 146 | 0.0 | 0.0 | 0.00 | 0.00 | 0.00 | 84 | 1026.8 |
| 20260902062004 | 60 | 145 | 0.0 | 0.0 | 0.00 | 0.00 | 0.00 | 85 | 1026.8 |
| 20260902061504 | 60 | 241 | 0.0 | 0.0 | 0.00 | 0.00 | 0.00 | 86 | 1026.8 |
| 20260902061004 | 59 | 232 | 0.0 | 0.0 | 0.00 | 0.00 | 0.00 | 87 | 1026.8 |
| 20260902060004 | 57 | 192 | 0.0 | 0.0 | 0.00 | 0.00 | 0.00 | 90 | 1026.4 |
| 20260902055505 | 56 | 167 | 0.0 | 0.0 | 0.00 | 0.00 | 0.00 | 92 | 1026.7 |
| 20260902055005 | 56 | 164 | 0.0 | 0.0 | 0.00 | 0.00 | 0.00 | 92 | 1026.8 |
| 20260902054504 | 56 | 167 | 0.0 | 0.0 | 0.00 | 0.00 | 0.00 | 93 | 1026.4 |
| 20260902054004 | 55 | 175 | 0.0 | 0.0 | 0.00 | 0.00 | 0.00 | 94 | 1026.4 |
| 20260902053504 | 55 | 175 | 0.0 | 0.0 | 0.00 | 0.00 | 0.00 | 94 | 1026.4 |
| 20260902053004 | 54 | 173 | 0.0 | 0.0 | 0.00 | 0.00 | 0.00 | 96 | 1026.4 |
| 20260902052004 | 54 | 186 | 0.0 | 0.0 | 0.00 | 0.00 | 0.00 | 97 | 1026.4 |
| 20260902051504 | 53 | 160 | 0.0 | 0.0 | 0.00 | 0.00 | 0.00 | 97 | 1026.1 |
| 20260902051005 | 53 | 171 | 0.0 | 0.0 | 0.00 | 0.00 | 0.00 | 97 | 1026.4 |
| 20260902050505 | 53 | 171 | 0.0 | 0.0 | 0.00 | 0.00 | 0.00 | 97 | 1026.4 |
| 20260902050007 | 52 | 172 | 0.0 | 0.0 | 0.00 | 0.00 | 0.00 | 97 | 1026.4 |
| 20260902045505 | 52 | 151 | 0.0 | 0.0 | 0.00 | 0.00 | 0.00 | 97 | 1026.4 |
| 20260902045005 | 52 | 151 | 0.0 | 0.0 | 0.00 | 0.00 | 0.00 | 97 | 1026.4 |
| 20260902044505 | 52 | 154 | 0.0 | 0.0 | 0.00 | 0.00 | 0.00 | 97 | 1026.4 |
| 20260902044004 | 52 | 151 | 0.0 | 0.0 | 0.00 | 0.00 | 0.00 | 97 | 1026.1 |
| 20260902043505 | 52 | 151 | 0.0 | 0.0 | 0.00 | 0.00 | 0.00 | 97 | 1026.1 |
| 20260902043004 | 52 | 151 | 0.0 | 0.0 | 0.00 | 0.00 | 0.00 | 97 | 1026.4 |
| 20260902042505 | 52 | 222 | 0.0 | 0.0 | 0.00 | 0.00 | 0.00 | 97 | 1026.1 |
| 20260902040504 | 52 | 152 | 0.0 | 0.0 | 0.00 | 0.00 | 0.00 | 97 | 1026.1 |
| 20260902040004 | 52 | 146 | 0.0 | 0.0 | 0.00 | 0.00 | 0.00 | 97 | 1026.1 |
| 20260902035504 | 52 | 203 | 0.0 | 0.0 | 0.00 | 0.00 | 0.00 | 97 | 1026.4 |
| 20260902035004 | 52 | 157 | 0.0 | 0.0 | 0.00 | 0.00 | 0.00 | 97 | 1026.1 |
| 20260902034504 | 52 | 182 | 0.0 | 0.0 | 0.00 | 0.00 | 0.00 | 97 | 1026.1 |
| 20260902034004 | 52 | 222 | 0.0 | 0.0 | 0.00 | 0.00 | 0.00 | 97 | 1026.1 |
| 20260902033504 | 52 | 174 | 0.0 | 0.0 | 0.00 | 0.00 | 0.00 | 97 | 1026.1 |
| 20260902033004 | 52 | 163 | 0.0 | 0.0 | 0.00 | 0.00 | 0.00 | 97 | 1026.4 |
| 20260902032504 | 52 | 173 | 0.0 | 0.0 | 0.00 | 0.00 | 0.00 | 97 | 1026.1 |
| 20260902032004 | 53 | 162 | 0.0 | 0.0 | 0.00 | 0.00 | 0.00 | 97 | 1026.4 |
| 20260902030505 | 53 | 156 | 0.0 | 0.0 | 0.00 | 0.00 | 0.00 | 97 | 1026.4 |
| 20260902030004 | 53 | 141 | 0.0 | 0.0 | 0.00 | 0.00 | 0.00 | 97 | 1026.1 |
| 20260902025504 | 53 | 149 | 0.0 | 0.0 | 0.00 | 0.00 | 0.00 | 97 | 1026.4 |
| 20260902025004 | 53 | 146 | 0.0 | 0.0 | 0.00 | 0.00 | 0.00 | 97 | 1026.4 |
| 20260902024504 | 53 | 146 | 0.0 | 0.0 | 0.00 | 0.00 | 0.00 | 97 | 1026.4 |